User: anonymous   Login
Location: Unspecified
(0.0000°N, 0.0000°E)
Time: 12:24:35
(UTC+01:00)
Language:

ADEOS II - Orbit

View from above orbital plane
View from above orbital plane
View from above satellite
View from above satellite

Ground track
Ground track

The orbit data is extracted from the following two-line orbital elements,

1 27597U 02056A   17328.51624172 +.00000076 +00000-0 +48239-4 0  9995
2 27597 098.3923 291.4403 0000849 142.3442 217.7799 14.27320106778291
Epoch (UTC): 24 November 2017 12:23:23
Eccentricity: 0.0000849
inclination: 98.3923°
perigee height: 800 km
apogee height: 801 km
right ascension of ascending node: 291.4403°
argument of perigee: 142.3442°
revolutions per day: 14.27320106
mean anomaly at epoch: 217.7799°
orbit number at epoch: 77829

The dashed part of the orbit path shows where the satellite is in the earth's shadow,  

DLR